Location: Le Castellard
(44.1862°N, 6.1301°E)
Time: 18:23:13
(UTC+00:00)

COSMOS 2455 - Pass Details

Date: 18 January 2020
Orbit: 902 x 907 km, 67.1° (Epoch: 16 February)

Event Time Altitude Azimuth Distance (km) Brightness Sun altitude
Rises 06:11:34 0° 222° (SW) 3,516 5.7 -9.8°
Reaches altitude 10° 06:14:07 10° 227° (SW) 2,579 5.0 -9.4°
Maximum altitude 06:20:00 58° 306° (NW) 1,055 2.9 -8.4°
Drops below altitude 10° 06:25:56 10° 25° (NNE) 2,597 5.3 -7.4°
Sets 06:28:31 0° 29° (NNE) 3,542 6.0 -6.9°
